This is the latest recevied weather packets stored in our database for station/object E22FEY-1. If no packets are shown the sender has not sent any weather packets the latest 10 day(s).
| Time | Temp. | Humidity | Pressure | Rain* | Wind** | Luminosity | Snow |
|---|---|---|---|---|---|---|---|
| 1777641161 | 33.33° C | 56% | 1008 hPa | - | - | 0 W/m² | - |
| 1777640236 | 33.89° C | 55% | 1008 hPa | - | - | 0 W/m² | - |
| 1777639312 | 33.33° C | 55% | 1008 hPa | - | - | 0 W/m² | - |
| 1777638387 | 33.89° C | 56% | 1007 hPa | - | - | 0 W/m² | - |
| 1777637463 | 33.89° C | 54% | 1007 hPa | - | - | 0 W/m² | - |
| 1777636538 | 34.44° C | 52% | 1007 hPa | - | - | 0 W/m² | - |
| 1777635614 | 34.44° C | 51% | 1007 hPa | - | - | 0 W/m² | - |
| 1777634688 | 35° C | 50% | 1007 hPa | - | - | 0 W/m² | - |
| 1777633764 | 36.67° C | 46% | 1006 hPa | - | - | 0 W/m² | - |
| 1777632839 | 36.67° C | 45% | 1006 hPa | - | - | 0 W/m² | - |
| 1777631914 | 37.22° C | 45% | 1006 hPa | - | - | 0 W/m² | - |
| 1777630990 | 36.67° C | 44% | 1006 hPa | - | - | 0 W/m² | - |
| 1777630065 | 37.78° C | 41% | 1006 hPa | - | - | 0 W/m² | - |
| 1777629141 | 37.78° C | 40% | 1005 hPa | - | - | 0 W/m² | - |
| 1777628216 | 37.78° C | 39% | 1005 hPa | - | - | 0 W/m² | - |
| 1777627293 | 38.89° C | 39% | 1006 hPa | - | - | 0 W/m² | - |
| 1777626368 | 38.89° C | 38% | 1006 hPa | - | - | 0 W/m² | - |
| 1777625443 | 38.33° C | 38% | 1006 hPa | - | - | 0 W/m² | - |
| 1777624519 | 39.44° C | 40% | 1006 hPa | - | - | 0 W/m² | - |
| 1777623595 | 38.89° C | 40% | 1006 hPa | - | - | 0 W/m² | - |
| 1777622670 | 38.33° C | 40% | 1006 hPa | - | - | 0 W/m² | - |
| 1777621745 | 38.89° C | 40% | 1007 hPa | - | - | 0 W/m² | - |
| 1777620820 | 38.89° C | 41% | 1007 hPa | - | - | 0 W/m² | - |
| 1777619895 | 38.89° C | 40% | 1008 hPa | - | - | 0 W/m² | - |
| 1777618971 | 39.44° C | 41% | 1008 hPa | - | - | 0 W/m² | - |
* Rain since midnight (hover to see other rain measurements)
** Current wind speed in m/s (hover to see current wind gust speed)